Regional Weather Roundup
Issued by NWS Northern Indiana

Home | Current Version | Previous Version | Graphics & Text | Print | Product List | Glossary On
Versions: 1 2 3 4 5 6 7 8 9 10 11 12 13 14 15 16 17 18 19 20 21 22 23 24 25 26 27 28 29 30 31 32 33 34 35 36 37 38 39 40 41 42 43 44 45 46 47 48 49 50
000
ASUS43 KIWX 272310
RWRIWX

KIWX WEATHER ROUNDUP
NATIONAL WEATHER SERVICE NORTHERN INDIANA
600 PM EST FRI FEB 27 2015

NOTE: "FAIR" INDICATES FEW OR NO CLOUDS BELOW 12,000 FEET WITH NO
SIGNIFICANT WEATHER AND/OR OBSTRUCTIONS TO VISIBILITY.

* THESE STATIONS ARE NOT UNDER NWS QUALITY CONTROL. THEY ALSO MAY NOT
  REPORT WEATHER SUCH AS PRECIPITATION OR FOG.

INZ001>027-280000-
NORTHERN INDIANA

CITY           SKY/WX    TMP DP  RH WIND       PRES   REMARKS
GARY*          CLEAR     18  -9  29 SW10      30.62R WCI   6
VALPARAISO     CLEAR     12  -1  56 SW10      30.60R WCI  -1
MICHIGAN CITY* CLEAR     16  -6  38 W5        30.60S WCI   9
LAPORTE*       CLEAR     14   0  53 SW8       30.60R WCI   3
KNOX*            N/A     12 -17  26 SW8       30.61R WCI   1
SOUTH BEND     CLEAR     16   0  49 SW10      30.59R WCI   4
ELKHART*       CLEAR     16  -4  41 S9        30.59R WCI   4
GOSHEN         CLEAR     15   3  59 SW7       30.59R WCI   5
MONTICELLO*    CLEAR     12   1  59 W6        30.62S WCI   3
LOGANSPORT*    CLEAR     12   1  62 SW6       30.61S WCI   3
ROCHESTER*     CLEAR     18   1  49 W8        30.61R WCI   7
WARSAW*        CLEAR     14   3  62 W7        30.59R WCI   4
ANGOLA*        CLEAR     14   0  52 W6        30.56S WCI   5
FORT WAYNE     PTCLDY    13   2  61 W6        30.60R WCI   4
HUNTINGTON*    CLOUDY    17   1  49 NE5       30.59S WCI  10
PERU/GRISSOM   FAIR      14   3  60 W7        30.59S WCI   4
MARION*        CLEAR     15   4  63 W6        30.60R WCI   6

$$
INZ028>050-280000-
CENTRAL INDIANA

CITY           SKY/WX    TMP DP  RH WIND       PRES   REMARKS
LAFAYETTE      CLEAR     13  -2  51 N7        30.63R WCI   3
KOKOMO*        CLEAR     16   3  57 NW7       30.61R WCI   6
MUNCIE*        CLEAR     14   1  56 NW5       30.60R WCI   6
INDIANAPOLIS   PTCLDY    16  -3  43 N8        30.59S WCI   5

$$
MIZ043>046-050>051-056>058-064>065-071>073-077>080-280000-
SOUTHWEST LOWER MICHIGAN

CITY           SKY/WX    TMP DP  RH WIND       PRES   REMARKS
BATTLE CREEK   CLOUDY    18   3  52 SW8       30.54S WCI   8
BENTON HARBOR  CLEAR     13   2  61 SW7       30.59S WCI   3
COLDWATER*     MOCLDY    15   2  57 W3        30.56R
HILLSDALE*     CLOUDY    15  -1  50 SW5       30.53S WCI   7
HOLLAND        PTCLDY    16   3  56 SW13      30.57S WCI   2
GRAND RAPIDS   MOCLDY    15   3  59 W13       30.55R WCI   1
KALAMAZOO      PTCLDY    15  -1  49 W12       30.56R WCI   2
STURGIS*       CLOUDY    14   1  57 SW5       30.56R WCI   6
THREE RIVERS*  FAIR      17   1  49 W3        30.57S

$$
OHZ001>008-015>018-024>025-280000-
NORTHWEST OHIO

CITY           SKY/WX    TMP DP  RH WIND       PRES   REMARKS
WAUSEON*       FAIR      14  -2  48 W5        30.59R WCI   6
DEFIANCE       CLEAR     15  -1  49 S7        30.60S WCI   5
FINDLAY        CLEAR     12  -3  51 SW5       30.60R WCI   4
TOLEDO EXPRESS CLEAR     14  -2  49 SW7       30.59S WCI   4
TOLEDO METCALF CLEAR     13  -2  51 SW8       30.61R WCI   2
LIMA           CLEAR     15  -4  42 N7        30.58R WCI   5

$$
AND FOR LAKE MICHIGAN COASTAL AND OPEN LAKE BUOY OBSERVATIONS

STATION/POSITION TEMP    WIND        PRES    VSBY  WAVE
                 AIR SEA DIR/SP/G                  HT/PER
                 (F)     (DEG/KT/KT) (MB)    (MI)  (FT/S)
CALUMET HARBOR    16     220/  6/  9 1034.9R
MICHIGAN CITY     14     200/  4/  4   N/A
SAINT JOSEPH      15     190/  5/  8 1035.9F

$$
&&



USA.gov is the U.S. government's official web portal to all federal, state and local government web resources and services.